• In Hungary
  • List of Countries
  • For 7 days
  • Water Temperature
  • Satellite Maps
  • Weather Map
  • News
  • Weather Widgets
  • user-avatar
    Login

    Hourly Weather Novy Bor

    Today, 18 October, Wednesday

    Time Temperature Precipitation Wind Pressure Humidity
    00:00 +13°C° 0 mm 2 mps 731 mmHg 81%
    01:00 +12°C° 0 mm 2 mps 730 mmHg 83%
    02:00 +12°C° 0 mm 2 mps 730 mmHg 84%
    03:00 +12°C° 0 mm 2 mps 729 mmHg 85%
    04:00 +10°C° 0 mm 2 mps 729 mmHg 85%
    05:00 +10°C° 0 mm 2 mps 729 mmHg 86%
    06:00 +10°C° 0 mm 2 mps 729 mmHg 87%
    07:00 +11°C° 0 mm 1 mps 729 mmHg 87%
    08:00 +13°C° 0 mm 1 mps 729 mmHg 82%
    09:00 +14°C° 0 mm 1 mps 729 mmHg 76%
    10:00 +16°C° 0 mm 1 mps 729 mmHg 70%
    11:00 +18°C° 0 mm 1 mps 729 mmHg 66%
    12:00 +19°C° 0 mm 1 mps 728 mmHg 63%
    13:00 +20°C° 0 mm 1 mps 728 mmHg 59%
    14:00 +19°C° 0 mm 1 mps 728 mmHg 62%
    15:00 +19°C° 0 mm 1 mps 728 mmHg 65%
    16:00 +18°C° 0 mm 1 mps 727 mmHg 68%
    17:00 +16°C° 0 mm 1 mps 727 mmHg 73%
    18:00 +15°C° 0 mm 1 mps 727 mmHg 77%
    19:00 +12°C° 0 mm 0 mps 727 mmHg 82%
    20:00 +13°C° 0 mm 1 mps 727 mmHg 83%
    21:00 +13°C° 0 mm 1 mps 727 mmHg 84%
    22:00 +12°C° 0 mm 1 mps 727 mmHg 85%
    23:00 +12°C° 0 mm 1 mps 727 mmHg 86%

    Tomorrow, 19 October, Thursday

    Time Temperature Precipitation Wind Pressure Humidity
    00:00 +12°C° 0 mm 1 mps 727 mmHg 87%
    01:00 +11°C° 0 mm 1 mps 727 mmHg 87%
    02:00 +11°C° 0 mm 1 mps 727 mmHg 87%
    03:00 +11°C° 0 mm 1 mps 727 mmHg 87%
    04:00 +11°C° 0 mm 1 mps 727 mmHg 88%
    05:00 +10°C° 0 mm 1 mps 727 mmHg 87%
    06:00 +10°C° 0 mm 1 mps 727 mmHg 87%
    07:00 +10°C° 0 mm 1 mps 728 mmHg 87%
    08:00 +12°C° 0 mm 1 mps 728 mmHg 79%
    09:00 +14°C° 0 mm 1 mps 728 mmHg 72%
    10:00 +16°C° 0 mm 1 mps 728 mmHg 65%
    11:00 +18°C° 0 mm 1 mps 728 mmHg 61%
    12:00 +19°C° 0 mm 1 mps 728 mmHg 57%
    13:00 +20°C° 0 mm 1 mps 728 mmHg 53%
    14:00 +20°C° 0 mm 1 mps 728 mmHg 56%
    15:00 +19°C° 0 mm 1 mps 728 mmHg 59%
    16:00 +19°C° 0 mm 1 mps 728 mmHg 62%
    17:00 +16°C° 0 mm 1 mps 728 mmHg 67%
    18:00 +15°C° 0 mm 1 mps 728 mmHg 71%
    19:00 +13°C° 0 mm 1 mps 728 mmHg 76%
    20:00 +13°C° 0 mm 1 mps 728 mmHg 77%
    21:00 +13°C° 0 mm 1 mps 728 mmHg 78%
    22:00 +12°C° 0 mm 1 mps 728 mmHg 79%
    23:00 +12°C° 0 mm 1 mps 728 mmHg 80%

    Day after tomorrow, 20 October, Friday

    Time Temperature Precipitation Wind Pressure Humidity
    00:00 +12°C° 0 mm 1 mps 728 mmHg 81%
    01:00 +12°C° 0 mm 1 mps 728 mmHg 81%
    02:00 +11°C° 0 mm 1 mps 728 mmHg 82%
    03:00 +11°C° 0 mm 1 mps 728 mmHg 83%
    04:00 +11°C° 0 mm 1 mps 728 mmHg 83%
    05:00 +11°C° 0 mm 1 mps 728 mmHg 84%
    06:00 +11°C° 0 mm 1 mps 729 mmHg 84%
    07:00 +11°C° 0 mm 1 mps 729 mmHg 84%
    08:00 +13°C° 0 mm 1 mps 729 mmHg 77%
    09:00 +14°C° 0 mm 1 mps 729 mmHg 70%
    10:00 +16°C° 0 mm 2 mps 730 mmHg 63%
    11:00 +17°C° 0 mm 2 mps 730 mmHg 60%
    12:00 +18°C° 0 mm 2 mps 730 mmHg 57%
    13:00 +19°C° 0 mm 2 mps 730 mmHg 53%
    14:00 +20°C° 0 mm 1 mps 730 mmHg 57%
    15:00 +19°C° 0 mm 1 mps 729 mmHg 60%
    16:00 +19°C° 0 mm 1 mps 729 mmHg 63%
    17:00 +16°C° 0 mm 1 mps 729 mmHg 67%
    18:00 +15°C° 0 mm 1 mps 730 mmHg 71%
    19:00 +14°C° 0 mm 1 mps 730 mmHg 75%
    20:00 +13°C° 0 mm 1 mps 730 mmHg 77%
    21:00 +13°C° 0 mm 1 mps 730 mmHg 78%
    22:00 +13°C° 0 mm 2 mps 730 mmHg 79%
    23:00 +12°C° 0 mm 2 mps 730 mmHg 80%

    21 October, Saturday

    Time Temperature Precipitation Wind Pressure Humidity
    00:00 +12°C° 0 mm 2 mps 730 mmHg 82%
    01:00 +12°C° 0 mm 2 mps 730 mmHg 83%
    02:00 +10°C° 0 mm 2 mps 730 mmHg 84%
    03:00 +10°C° 0 mm 2 mps 730 mmHg 85%
    04:00 +10°C° 0 mm 2 mps 730 mmHg 86%
    05:00 +9°C° 0 mm 2 mps 730 mmHg 86%
    06:00 +9°C° 0 mm 2 mps 730 mmHg 87%
    07:00 +9°C° 0 mm 2 mps 730 mmHg 88%
    08:00 +12°C° 0 mm 2 mps 730 mmHg 82%
    09:00 +13°C° 0 mm 2 mps 730 mmHg 75%
    10:00 +15°C° 0 mm 2 mps 731 mmHg 69%
    11:00 +16°C° 0 mm 2 mps 730 mmHg 65%
    12:00 +17°C° 0 mm 2 mps 730 mmHg 62%
    13:00 +18°C° 0 mm 2 mps 730 mmHg 59%
    14:00 +18°C° 0 mm 2 mps 730 mmHg 62%
    15:00 +17°C° 0 mm 2 mps 729 mmHg 65%
    16:00 +17°C° 0 mm 2 mps 729 mmHg 68%
    17:00 +16°C° 0 mm 2 mps 729 mmHg 71%
    18:00 +15°C° 0 mm 2 mps 729 mmHg 74%
    19:00 +14°C° 0 mm 2 mps 729 mmHg 78%
    20:00 +13°C° 0 mm 2 mps 729 mmHg 79%
    21:00 +13°C° 0 mm 2 mps 728 mmHg 80%
    22:00 +13°C° 0 mm 2 mps 728 mmHg 82%
    23:00 +12°C° 0 mm 2 mps 728 mmHg 83%

    22 October, Sunday

    Time Temperature Precipitation Wind Pressure Humidity
    00:00 +12°C° 0 mm 2 mps 728 mmHg 84%
    01:00 +12°C° 0 mm 2 mps 728 mmHg 85%
    02:00 +12°C° 0.6 mm 2 mps 728 mmHg 86%
    03:00 +12°C° 0.6 mm 1 mps 728 mmHg 88%
    04:00 +12°C° 0.6 mm 1 mps 728 mmHg 89%
    05:00 +12°C° 0.4 mm 1 mps 728 mmHg 90%
    06:00 +12°C° 0.4 mm 1 mps 728 mmHg 90%
    07:00 +12°C° 0.4 mm 2 mps 728 mmHg 91%
    08:00 +12°C° 0.7 mm 2 mps 728 mmHg 89%
    09:00 +12°C° 0.7 mm 2 mps 728 mmHg 88%
    10:00 +12°C° 0.7 mm 2 mps 728 mmHg 87%
    11:00 +12°C° 0.4 mm 2 mps 728 mmHg 85%
    12:00 +12°C° 0.4 mm 2 mps 728 mmHg 83%
    13:00 +11°C° 0.4 mm 3 mps 728 mmHg 81%
    14:00 +12°C° 0.1 mm 2 mps 728 mmHg 81%
    15:00 +12°C° 0.1 mm 2 mps 728 mmHg 81%
    16:00 +12°C° 0.1 mm 2 mps 728 mmHg 81%
    17:00 +10°C° 0 mm 2 mps 728 mmHg 82%
    18:00 +9°C° 0 mm 2 mps 728 mmHg 83%
    19:00 +10°C° 0 mm 1 mps 729 mmHg 84%
    20:00 +9°C° 0 mm 1 mps 729 mmHg 84%
    21:00 +9°C° 0 mm 1 mps 729 mmHg 84%
    22:00 +9°C° 0 mm 1 mps 729 mmHg 85%
    23:00 +7°C° 0 mm 2 mps 729 mmHg 86%

    23 October, Monday

    Time Temperature Precipitation Wind Pressure Humidity
    00:00 +7°C° 0 mm 2 mps 729 mmHg 86%
    01:00 +7°C° 0 mm 2 mps 729 mmHg 87%
    02:00 +7°C° 0 mm 2 mps 729 mmHg 88%
    03:00 +6°C° 0 mm 2 mps 729 mmHg 88%
    04:00 +6°C° 0 mm 2 mps 729 mmHg 89%
    05:00 +6°C° 0 mm 2 mps 730 mmHg 89%
    06:00 +6°C° 0 mm 2 mps 730 mmHg 90%
    07:00 +6°C° 0 mm 2 mps 730 mmHg 90%
    08:00 +7°C° 0 mm 2 mps 731 mmHg 86%
    09:00 +7°C° 0 mm 3 mps 731 mmHg 82%
    10:00 +8°C° 0 mm 3 mps 732 mmHg 79%
    11:00 +9°C° 0 mm 3 mps 732 mmHg 75%
    12:00 +9°C° 0 mm 3 mps 732 mmHg 72%
    13:00 +10°C° 0 mm 3 mps 732 mmHg 69%
    14:00 +10°C° 0 mm 3 mps 732 mmHg 70%
    15:00 +10°C° 0 mm 2 mps 732 mmHg 71%
    16:00 +9°C° 0 mm 2 mps 733 mmHg 73%
    17:00 +8°C° 0 mm 2 mps 733 mmHg 77%
    18:00 +7°C° 0 mm 2 mps 733 mmHg 80%
    19:00 +7°C° 0 mm 2 mps 734 mmHg 84%
    20:00 +6°C° 0 mm 2 mps 734 mmHg 86%
    21:00 +6°C° 0 mm 2 mps 734 mmHg 88%
    22:00 +6°C° 0 mm 2 mps 734 mmHg 89%
    23:00 +6°C° 0 mm 1 mps 734 mmHg 90%
    Show more